Chadron, NE

9:58 PM MDT on April 20, 2018 (GMT -0600)
Chadron Municipal

Weather History for KCDR - December, 2013

Change the Weather History Date:

Thursday, December 26, 2013

  Actual Average Record
Temperature  
Mean Temperature 27 °F 24 °F  
Max Temperature 42 °F 38 °F 64 °F (1946)
Min Temperature 12 °F 9 °F -17 °F (2017)
Degree Days  
Heating Degree Days 38 41  
Month to date heating degree days 1246 1049  
Since 1 July heating degree days 2882 2733  
Cooling Degree Days 0 0  
Month to date cooling degree days 0 0  
Year to date cooling degree days 917 712  
Moisture  
Dew Point 22 °F    
Average Humidity 72    
Maximum Humidity 88    
Minimum Humidity 56    
Precipitation  
Precipitation 0.00 in 0.01 in 0.26 in (2015)
Month to date precipitation 0.12 0.44  
Year to date precipitation 19.22 17.97  
Sea Level Pressure  
Sea Level Pressure 30.28 in    
Wind  
Wind Speed 10 mph (West)    
Max Wind Speed 24 mph    
Max Gust Speed 30 mph    
Visibility 10 miles    
Events      
T = Trace of Precipitation, MM = Missing Value Source: NWS Daily Summary

Daily Weather History Graph

Daily Weather History Graph

Search for Another Location

Airport or City:

Astronomy

Dec. 26, 2013 Rise Set
Actual Time 7:22 AM MST 4:24 PM MST
Civil Twilight 6:49 AM MST 4:56 PM MST
Nautical Twilight 6:14 AM MST 5:32 PM MST
Astronomical Twilight 5:39 AM MST 6:06 PM MST
Moon 12:46 AM MST (12/26) 12:06 PM MST (12/26)
Length of Visible Light 10h 06m
Length of Day
9h 02m
Last Quarter, 38% of the Moon is Illuminated
Dec 26
Last Quarter
Jan 1
New
Jan 7
First Quarter
Jan 15
Full
Jan 23
Last Quarter

Hourly Weather History & Observations

Time (MST) Temp. Windchill Dew Point Humidity Pressure Visibility Wind Dir Wind Speed Gust Speed Precip Events Conditions
12:53 AM 15.1 °F - 10.9 °F 84% 30.22 in 10.0 mi Calm Calm - N/A   Clear
1:53 AM 15.1 °F 6.4 °F 10.9 °F 84% 30.23 in 10.0 mi WSW 5.8 mph - N/A   Clear
2:53 AM 28.9 °F 22.8 °F 16.0 °F 58% 30.21 in 10.0 mi NW 5.8 mph 19.6 mph N/A   Clear
3:53 AM 28.0 °F 17.0 °F 18.0 °F 66% 30.23 in 10.0 mi WNW 13.8 mph - N/A   Partly Cloudy
4:53 AM 28.9 °F 18.2 °F 19.9 °F 69% 30.24 in 10.0 mi West 13.8 mph - N/A   Overcast
5:53 AM 26.1 °F 15.6 °F 18.0 °F 71% 30.28 in 10.0 mi WSW 11.5 mph - N/A   Clear
6:53 AM 26.1 °F 15.0 °F 17.1 °F 69% 30.30 in 10.0 mi WSW 12.7 mph - N/A   Clear
7:53 AM 28.9 °F 18.2 °F 19.0 °F 67% 30.33 in 10.0 mi WSW 13.8 mph - N/A   Clear
8:53 AM 35.1 °F 25.9 °F 21.0 °F 57% 30.34 in 10.0 mi West 13.8 mph - N/A   Clear
9:53 AM 36.0 °F 28.5 °F 24.1 °F 62% 30.35 in 10.0 mi West 10.4 mph - N/A   Mostly Cloudy
10:53 AM 39.0 °F 30.6 °F 27.0 °F 62% 30.32 in 10.0 mi West 15.0 mph - N/A   Clear
11:53 AM 39.9 °F 31.1 °F 28.0 °F 63% 30.31 in 10.0 mi West 17.3 mph - N/A   Clear
12:53 PM 39.9 °F 30.5 °F 28.0 °F 63% 30.31 in 10.0 mi West 19.6 mph - N/A   Clear
1:53 PM 39.9 °F 32.9 °F 28.9 °F 65% 30.31 in 10.0 mi West 11.5 mph - N/A   Clear
2:53 PM 41.0 °F 33.9 °F 28.0 °F 60% 30.27 in 10.0 mi West 12.7 mph - N/A   Clear
3:53 PM 39.9 °F 36.7 °F 28.0 °F 63% 30.29 in 10.0 mi West 4.6 mph - N/A   Clear
4:53 PM 36.0 °F 29.6 °F 27.0 °F 70% 30.28 in 10.0 mi SSW 8.1 mph - N/A   Clear
5:53 PM 32.0 °F 27.5 °F 25.0 °F 75% 30.29 in 10.0 mi WSW 4.6 mph - N/A   Clear
6:53 PM 28.9 °F 21.1 °F 24.1 °F 82% 30.30 in 10.0 mi WSW 8.1 mph - N/A   Clear
7:53 PM 27.0 °F 18.7 °F 21.9 °F 81% 30.30 in 10.0 mi WSW 8.1 mph - N/A   Clear
8:53 PM 25.0 °F 17.1 °F 21.0 °F 85% 30.28 in 10.0 mi WSW 6.9 mph - N/A   Clear
9:53 PM 28.9 °F 20.4 °F 21.9 °F 75% 30.26 in 10.0 mi WSW 9.2 mph - N/A   Clear
10:53 PM 30.9 °F 22.2 °F 23.0 °F 72% 30.25 in 10.0 mi WSW 10.4 mph - N/A   Clear
11:53 PM 30.0 °F 21.7 °F 21.9 °F 72% 30.23 in 10.0 mi West 9.2 mph - N/A   Clear